User: anonymous   Login
Location: Bartlow
(52.0833°N, 0.3167°E)
Time: 19:30:38
(UTC+00:00)
Language:

Cosmos 1428 Rocket - Orbit

View from above orbital plane
View from above orbital plane
View from above satellite
View from above satellite

Ground track
Ground track

The orbit data is extracted from the following two-line orbital elements,

1 13758U 83001B   24062.55414655 -.00000032  00000-0 -46000-4 0  9996
2 13758  82.9072 273.1655 0026325 308.2431  51.6358 13.78979522 69075
Epoch (UTC): 02 March 2024 13:17:58
Eccentricity: 0.0026325
inclination: 82.9072°
perigee height: 948 km
apogee height: 987 km
right ascension of ascending node: 273.1655°
argument of perigee: 308.2431°
revolutions per day: 13.78979522
mean anomaly at epoch: 51.6358°
orbit number at epoch: 6907

The dashed part of the orbit path shows where the satellite is in the earth's shadow,  

DLR